H1 CPF 2 NER 2024 7 10 9 192 01 glonass138 H2 1805301 9138 43508 2024 7 10 0 0 0 2024 7 13 23 45 0 900 1 1 0 0 0 1 H9 10 0 60501 0.00000 0 -10527465.061 -8202599.111 21752235.597 10 0 60501 900.00000 0 -7844428.496 -8755284.824 22649939.268 10 0 60501 1800.00000 0 -5130064.490 -9530341.000 23108336.859 10 0 60501 2700.00000 0 -2453824.521 -10515576.167 23118473.172 10 0 60501 3600.00000 0 117802.577 -11686674.262 22680071.747 10 0 60501 4500.00000 0 2523824.768 -13008115.099 21801546.274 10 0 60501 5400.00000 0 4711046.842 -14434582.398 20499845.502 10 0 60501 6300.00000 0 6636041.644 -15912801.783 18800133.873 10 0 60501 7200.00000 0 8266711.202 -17383732.976 16735313.215 10 0 60501 8100.00000 0 9583373.275 -18785025.357 14345393.676 10 0 60501 9000.00000 0 10579328.406 -20053634.647 11676725.132 10 0 60501 9900.00000 0 11260884.095 -21128491.156 8781103.091 10 0 60501 10800.00000 0 11646835.409 -21953107.400 5714765.831 10 0 60501 11700.00000 0 11767424.244 -22478014.915 2537301.905 10 0 60501 12600.00000 0 11662821.481 -22662926.770 -689510.670 10 0 60501 13500.00000 0 11381196.731 -22478533.641 -3902910.617 10 0 60501 14400.00000 0 10976457.962 -21907856.506 -7040380.906 10 0 60501 15300.00000 0 10505757.477 -20947097.652 -10040872.714 10 0 60501 16200.00000 0 10026870.868 -19605953.094 -12846001.145 10 0 60501 17100.00000 0 9595560.881 -17907372.143 -15401188.440 10 0 60501 18000.00000 0 9263038.821 -15886773.525 -17656731.629 10 0 60501 18900.00000 0 9073631.886 -13590750.539 -19568773.299 10 0 60501 19800.00000 0 9062755.795 -11075319.189 -21100156.313 10 0 60501 20700.00000 0 9255278.938 -8403782.601 -22221145.784 10 0 60501 21600.00000 0 9664347.468 -5644300.863 -22910004.541 10 0 60501 22500.00000 0 10290721.048 -2867267.631 -23153411.320 10 0 60501 23400.00000 0 11122647.286 -142602.679 -22946714.068 10 0 60501 24300.00000 0 12136280.089 2462927.205 -22294014.077 10 0 60501 25200.00000 0 13296624.247 4888248.139 -21208079.829 10 0 60501 26100.00000 0 14558966.432 7080274.964 -19710092.691 10 0 60501 27000.00000 0 15870732.379 8995868.590 -17829229.767 10 0 60501 27900.00000 0 17173692.203 10603374.661 -15602092.216 10 0 60501 28800.00000 0 18406421.150 11883680.956 -13071990.284 10 0 60501 29700.00000 0 19506912.417 12830751.030 -10288099.012 10 0 60501 30600.00000 0 20415232.246 13451613.588 -7304501.042 10 0 60501 31500.00000 0 21076105.737 13765809.712 -4179135.189 10 0 60501 32400.00000 0 21441324.666 13804322.830 -972671.258 10 0 60501 33300.00000 0 21471876.101 13608037.826 2252666.992 10 0 60501 34200.00000 0 21139702.297 13225795.380 5434307.743 10 0 60501 35100.00000 0 20429017.831 12712124.453 8510542.456 10 0 60501 36000.00000 0 19337128.505 12124749.140 11421719.190 10 0 60501 36900.00000 0 17874717.381 11521975.396 14111394.847 10 0 60501 37800.00000 0 16065585.591 10960067.924 16527424.341 10 0 60501 38700.00000 0 13945858.164 10490727.684 18622965.986 10 0 60501 39600.00000 0 11562687.384 10158776.090 20357384.167 10 0 60501 40500.00000 0 8972506.834 10000143.137 21697032.451 10 0 60501 41400.00000 0 6238907.802 10040243.874 22615902.620 10 0 60501 42300.00000 0 3430225.205 10292811.467 23096127.566 10 0 60501 43200.00000 0 616932.052 10759236.033 23128328.759 10 0 60501 44100.00000 0 -2131050.672 11428437.463 22711801.669 10 0 60501 45000.00000 0 -4747018.294 12277278.312 21854535.426 10 0 60501 45900.00000 0 -7170011.470 13271500.360 20573065.913 10 0 60501 46800.00000 0 -9347105.897 14367146.655 18892164.402 10 0 60501 47700.00000 0 -11235368.296 15512410.469 16844366.885 10 0 60501 48600.00000 0 -12803397.834 16649834.521 14469352.168 10 0 60501 49500.00000 0 -14032389.127 17718768.870 11813179.786 10 0 60501 50400.00000 0 -14916672.681 18657984.513 8927401.648 10 0 60501 51300.00000 0 -15463710.382 19408332.757 5868064.007 10 0 60501 52200.00000 0 -15693546.457 19915337.961 2694618.796 10 0 60501 53100.00000 0 -15637737.345 20131613.552 -531234.472 10 0 60501 54000.00000 0 -15337806.021 20018998.373 -3746753.346 10 0 60501 54900.00000 0 -14843286.590 19550321.860 -6889379.523 10 0 60501 55800.00000 0 -14209442.655 18710722.329 -9897963.663 10 0 60501 56700.00000 0 -13494756.758 17498461.353 -12713963.074 10 0 60501 57600.00000 0 -12758297.993 15925198.604 -15282588.045 10 0 60501 58500.00000 0 -12057080.217 14015714.703 -17553873.711 10 0 60501 59400.00000 0 -11443523.285 11807092.739 -19483655.975 10 0 60501 60300.00000 0 -10963125.390 9347392.275 -21034432.257 10 0 60501 61200.00000 0 -10652445.256 6693871.091 -22176090.277 10 0 60501 62100.00000 0 -10537479.521 3910828.598 -22886490.906 10 0 60501 63000.00000 0 -10632503.708 1067160.775 -23151894.192 10 0 60501 63900.00000 0 -10939425.438 -1766271.672 -22967220.815 10 0 60501 64800.00000 0 -11447676.746 -4519352.689 -22336144.486 10 0 60501 65700.00000 0 -12134649.617 -7125385.567 -21271014.065 10 0 60501 66600.00000 0 -12966655.962 -9523622.383 -19792607.352 10 0 60501 67500.00000 0 -13900371.242 -11661543.859 -17929721.732 10 0 60501 68400.00000 0 -14884700.656 -13496795.931 -15718609.821 10 0 60501 69300.00000 0 -15862989.089 -14998703.631 -13202271.241 10 0 60501 70200.00000 0 -16775481.620 -16149300.637 -10429614.342 10 0 60501 71100.00000 0 -17561930.879 -16943833.066 -7454504.181 10 0 60501 72000.00000 0 -18164241.347 -17390718.067 -4334715.297 10 0 60501 72900.00000 0 -18529039.187 -17510960.488 -1130809.712 10 0 60501 73800.00000 0 -18610059.279 -17337053.628 2095038.033 10 0 60501 74700.00000 0 -18370248.871 -16911411.515 5280245.847 10 0 60501 75600.00000 0 -17783499.127 -16284399.740 8363035.649 10 0 60501 76500.00000 0 -16835931.543 -15512048.486 11283628.050 10 0 60501 77400.00000 0 -15526684.814 -14653544.577 13985397.105 10 0 60501 78300.00000 0 -13868168.672 -13768608.316 16415963.011 10 0 60501 79200.00000 0 -11885773.373 -12914865.490 18528202.052 10 0 60501 80100.00000 0 -9617046.177 -12145324.875 20281154.719 10 0 60501 81000.00000 0 -7110368.170 -11506066.918 21640815.087 10 0 60501 81900.00000 0 -4423185.352 -11034240.316 22580786.773 10 0 60501 82800.00000 0 -1619866.339 -10756450.282 23082793.346 10 0 60501 83700.00000 0 1230725.739 -10687605.949 23137033.682 10 0 60501 84600.00000 0 4057847.743 -10830275.272 22742375.552 10 0 60501 85500.00000 0 6791570.286 -11174574.769 21906383.558 10 0 60502 0.00000 0 9365439.987 -11698599.161 20645180.566 10 0 60502 900.00000 0 11719002.114 -12369373.900 18983143.872 10 0 60502 1800.00000 0 13800076.210 -13144290.640 16952442.848 10 0 60502 2700.00000 0 15566695.189 -13972967.082 14592423.772 10 0 60502 3600.00000 0 16988624.014 -14799452.981 11948854.326 10 0 60502 4500.00000 0 18048396.119 -15564690.138 9073040.970 10 0 60502 5400.00000 0 18741824.103 -16209122.775 6020835.743 10 0 60502 6300.00000 0 19077963.364 -16675347.965 2851551.447 10 0 60502 7200.00000 0 19078530.333 -16910693.552 -373193.657 10 0 60502 8100.00000 0 18776800.050 -16869613.753 -3590678.852 10 0 60502 9000.00000 0 18216030.002 -16515799.941 -6738307.586 10 0 60502 9900.00000 0 17447477.361 -15823916.108 -9754833.008 10 0 60502 10800.00000 0 16528094.084 -14780884.231 -12581557.564 10 0 60502 11700.00000 0 15517998.148 -13386663.923 -15163482.429 10 0 60502 12600.00000 0 14477828.568 -11654492.228 -17450383.490 10 0 60502 13500.00000 0 13466096.756 -9610572.342 -19397792.418 10 0 60502 14400.00000 0 12536646.740 -7293223.547 -20967863.418 10 0 60502 15300.00000 0 11736331.760 -4751527.284 -22130108.736 10 0 60502 16200.00000 0 11103005.383 -2043525.554 -22861988.863 10 0 60502 17100.00000 0 10663911.596 765953.475 -23149346.367 10 0 60502 18000.00000 0 10434541.277 3607752.343 -22986675.467 10 0 60502 18900.00000 0 10418002.559 6411021.634 -22377222.701 10 0 60502 19800.00000 0 10604930.851 9105928.482 -21332917.299 10 0 60502 20700.00000 0 10973941.485 11626324.116 -19874133.098 10 0 60502 21600.00000 0 11492605.158 13912260.222 -18029286.967 10 0 60502 22500.00000 0 12118904.385 15912250.321 -15834281.791 10 0 60502 23400.00000 0 12803109.011 17585183.058 -13331804.986 10 0 60502 24300.00000 0 13489991.268 18901808.835 -10570496.238 10 0 60502 25200.00000 0 14121286.666 19845739.133 -7604000.650 10 0 60502 26100.00000 0 14638296.641 20413918.107 -4489925.785 10 0 60502 27000.00000 0 14984523.022 20616548.172 -1288722.888 10 0 60502 27900.00000 0 15108223.027 20476474.077 1937485.917 10 0 60502 28800.00000 0 14964776.905 20028052.567 5126111.562 10 0 60502 29700.00000 0 14518768.231 19315556.190 8215309.724 10 0 60502 30600.00000 0 13745688.994 18391179.181 11145176.789 10 0 60502 31500.00000 0 12633197.359 17312729.840 13858907.006 10 0 60502 32400.00000 0 11181874.763 16141106.693 16303888.692 10 0 60502 33300.00000 0 9405449.866 14937664.527 18432718.679 10 0 60502 34200.00000 0 7330479.127 13761580.718 20204115.859 10 0 60502 35100.00000 0 4995496.235 12667331.994 21583716.783 10 0 60502 36000.00000 0 2449664.619 11702386.975 22544738.527 10 0 60502 36900.00000 0 -249012.253 10905210.685 23068496.552 10 0 60502 37800.00000 0 -3035849.876 10303664.175 23144767.911 10 0 60502 38700.00000 0 -5841922.868 9913865.951 22771992.961 10 0 60502 39600.00000 0 -8596686.463 9739562.770 21957311.518 10 0 60502 40500.00000 0 -11230671.861 9772036.226 20716432.370 10 0 60502 41400.00000 0 -13678144.726 9990549.303 19073337.933 10 0 60502 42300.00000 0 -15879617.206 10363314.595 17059828.918 10 0 60502 43200.00000 0 -17784109.646 10848944.005 14714916.781 10 0 60502 44100.00000 0 -19351068.093 11398319.424 12084074.719 10 0 60502 45000.00000 0 -20551857.684 11956805.955 9218360.871 10 0 60502 45900.00000 0 -21370769.422 12466714.460 6173430.071 10 0 60502 46800.00000 0 -21805498.060 12869909.301 3008452.971 10 0 60502 47700.00000 0 -21867070.921 13110450.545 -215036.426 10 0 60502 48600.00000 0 -21579230.616 13137158.055 -3434342.049 10 0 60502 49500.00000 0 -20977297.903 12905987.868 -6586831.923 10 0 60502 50400.00000 0 -20106562.960 12382119.014 -9611164.390 10 0 60502 51300.00000 0 -19020273.490 11541661.073 -12448489.616 10 0 60502 52200.00000 0 -17777305.268 10372908.875 -15043602.032 10 0 60502 53100.00000 0 -16439614.146 8877089.959 -17346020.417 10 0 60502 54000.00000 0 -15069577.833 7068572.079 -19310974.048 10 0 60502 54900.00000 0 -13727340.103 4974520.935 -20900275.404 10 0 60502 55800.00000 0 -12468269.805 2634021.653 -22083062.384 10 0 60502 56700.00000 0 -11340641.746 96700.138 -22836395.856 10 0 60502 57600.00000 0 -10383636.826 -2579098.640 -23145701.279 10 0 60502 58500.00000 0 -9625745.032 -5328499.809 -23005046.395 10 0 60502 59400.00000 0 -9083637.672 -8082564.306 -22417250.183 10 0 60502 60300.00000 0 -8761555.266 -10770928.932 -21393821.507 10 0 60502 61200.00000 0 -8651235.707 -13324511.266 -19954729.150 10 0 60502 62100.00000 0 -8732384.568 -15678167.491 -18128008.075 10 0 60502 63000.00000 0 -8973666.663 -17773193.220 -15949209.785 10 0 60502 63900.00000 0 -9334176.097 -19559563.933 -13460707.625 10 0 60502 64800.00000 0 -9765321.999 -20997822.647 -10710870.603 10 0 60502 65700.00000 0 -10213049.739 -22060537.096 -7753121.771 10 0 60502 66600.00000 0 -10620303.369 -22733266.663 -4644899.563 10 0 60502 67500.00000 0 -10929624.933 -23014999.835 -1446542.268 10 0 60502 68400.00000 0 -11085780.633 -22918045.032 1779882.604 10 0 60502 69300.00000 0 -11038302.711 -22467380.505 4971781.245 10 0 60502 70200.00000 0 -10743839.595 -21699491.589 8067245.368 10 0 60502 71100.00000 0 -10168214.920 -20660744.929 11006249.445 10 0 60502 72000.00000 0 -9288108.344 -19405368.539 13731810.253 10 0 60502 72900.00000 0 -8092286.998 -17993122.826 16191086.529 10 0 60502 73800.00000 0 -6582335.176 -16486760.354 18336397.859 10 0 60502 74700.00000 0 -4772850.829 -14949380.711 20126143.580 10 0 60502 75600.00000 0 -2691099.575 -13441790.900 21525604.535 10 0 60502 76500.00000 0 -376139.397 -12019981.201 22507612.796 10 0 60502 77400.00000 0 2122548.929 -10732821.502 23053076.928 10 0 60502 78300.00000 0 4746870.235 -9620073.744 23151353.043 10 0 60502 79200.00000 0 7432288.624 -8710802.993 22800454.622 10 0 60502 80100.00000 0 10110277.674 -8022253.116 22007096.915 10 0 60502 81000.00000 0 12710946.863 -7559233.797 20786574.653 10 0 60502 81900.00000 0 15165736.408 -7314044.417 19162474.743 10 0 60502 82800.00000 0 17410069.435 -7266938.070 17166228.612 10 0 60502 83700.00000 0 19385851.812 -7387106.382 14836511.857 10 0 60502 84600.00000 0 21043715.855 -7634143.966 12218501.822 10 0 60502 85500.00000 0 22344914.281 -7959931.017 9363006.601 10 0 60503 0.00000 0 23262785.012 -8310854.678 6325482.016 10 0 60503 900.00000 0 23783725.626 -8630275.347 3164953.583 10 0 60503 1800.00000 0 23907635.002 -8861132.773 -57131.393 10 0 60503 2700.00000 0 23647805.065 -8948581.505 -3278104.440 10 0 60503 3600.00000 0 23030265.712 -8842542.668 -6435301.214 10 0 60503 4500.00000 0 22092611.077 -8500062.916 -9467288.318 10 0 60503 5400.00000 0 20882356.961 -7887379.363 -12315066.611 10 0 60503 6300.00000 0 19454898.966 -6981601.634 -14923226.610 10 0 60503 7200.00000 0 17871158.002 -5771938.534 -17241032.612 10 0 60503 8100.00000 0 16195013.124 -4260416.280 -19223413.902 10 0 60503 9000.00000 0 14490630.288 -2462056.810 -20831843.392 10 0 60503 9900.00000 0 12819799.868 -404507.713 -22035086.547 10 0 60503 10800.00000 0 11239395.019 1872861.523 -22809806.214 10 0 60503 11700.00000 0 9799057.447 4320359.820 -23141012.039 10 0 60503 12600.00000 0 8539207.303 6879813.311 -23022346.239 10 0 60503 13500.00000 0 7489459.877 9486766.373 -22456200.804 10 0 60503 14400.00000 0 6667514.427 12072953.509 -21453664.411 10 0 60503 15300.00000 0 6078560.499 14568939.515 -20034300.573 10 0 60503 16200.00000 0 5715225.230 16906818.400 -18225761.716 10 0 60503 17100.00000 0 5558062.415 19022859.198 -16063246.906 10 0 60503 18000.00000 0 5576561.377 20859988.979 -13588813.954 10 0 60503 18900.00000 0 5730631.930 22370010.248 -10850559.303 10 0 60503 19800.00000 0 5972501.764 23515460.969 -7901681.677 10 0 60503 20700.00000 0 6248945.356 24271040.334 -4799447.729 10 0 60503 21600.00000 0 6503749.634 24624541.610 -1604079.839 10 0 60503 22500.00000 0 6680311.745 24577253.908 1622412.293 10 0 60503 23400.00000 0 6724258.848 24143816.985 4817433.445 10 0 60503 24300.00000 0 6585978.968 23351536.001 7919014.732 10 0 60503 25200.00000 0 6222955.869 22239185.664 10867012.029 10 0 60503 26100.00000 0 5601809.145 20855354.459 13604267.823 10 0 60503 27000.00000 0 4699953.237 19256398.695 16077714.258 10 0 60503 27900.00000 0 3506805.051 17504092.135 18239396.427 10 0 60503 28800.00000 0 2024488.753 15663069.482 20047396.586 10 0 60503 29700.00000 0 268007.231 13798170.241 21466642.026 10 0 60503 30600.00000 0 -1735128.126 11971793.391 22469581.611 10 0 60503 31500.00000 0 -3945795.266 10241372.638 23036718.408 10 0 60503 32400.00000 0 -6314651.056 8657076.853 23156988.522 10 0 60503 33300.00000 0 -8783956.422 7259830.862 22827978.979 10 0 60503 34200.00000 0 -11289762.724 6079738.509 22055980.322 10 0 60503 35100.00000 0 -13764370.053 5134973.241 20855872.500 10 0 60503 36000.00000 0 -16138956.581 4431182.145 19250845.582 10 0 60503 36900.00000 0 -18346270.648 3961428.128 17271959.817 10 0 60503 37800.00000 0 -20323274.257 3706672.502 14957552.543 10 0 60503 38700.00000 0 -22013628.198 3636777.685 12352502.417 10 0 60503 39600.00000 0 -23369915.040 3711987.806 9507364.358 10 0 60503 40500.00000 0 -24355506.821 3884824.715 6477391.294 10 0 60503 41400.00000 0 -24945998.755 4102319.160 3321461.318 10 0 60503 42300.00000 0 -25130148.202 4308482.347 100931.121 10 0 60503 43200.00000 0 -24910278.927 4446912.623 -3121561.711 10 0 60503 44100.00000 0 -24302133.157 4463425.948 -6283323.603 10 0 60503 45000.00000 0 -23334177.440 4308597.572 -9322832.398 10 0 60503 45900.00000 0 -22046391.518 3940105.978 -12180942.424 10 0 60503 46800.00000 0 -20488591.295 3324778.421 -14802042.795 10 0 60503 47700.00000 0 -18718357.061 2440250.214 -17135145.568 10 0 60503 48600.00000 0 -16798654.424 1276166.281 -19134881.913 10 0 60503 49500.00000 0 -14795248.601 -165126.909 -20762386.620 10 0 60503 50400.00000 0 -12774021.220 -1868429.137 -21986053.667 10 0 60503 51300.00000 0 -10798302.258 -3806081.282 -22782148.346 10 0 60503 52200.00000 0 -8926328.969 -5938891.395 -23135264.448 10 0 60503 53100.00000 0 -7208937.874 -8217553.750 -23038618.145 10 0 60503 54000.00000 0 -5687585.713 -10584502.068 -22494173.497 10 0 60503 54900.00000 0 -4392781.151 -12976119.906 -21512597.664 10 0 60503 55800.00000 0 -3342991.566 -15325216.337 -20113047.243 10 0 60503 56700.00000 0 -2544069.209 -17563664.032 -18322790.211 10 0 60503 57600.00000 0 -1989219.109 -19625090.133 -16176671.106 10 0 60503 58500.00000 0 -1659508.454 -21447508.068 -13716429.974 10 0 60503 59400.00000 0 -1524894.432 -22975780.947 -10989888.408 10 0 60503 60300.00000 0 -1545725.853 -24163814.218 -8050018.504 10 0 60503 61200.00000 0 -1674654.058 -24976386.500 -4953912.874 10 0 60503 62100.00000 0 -1858871.473 -25390542.635 -1761675.790 10 0 60503 63000.00000 0 -2042582.575 -25396491.321 1464742.982 10 0 60503 63900.00000 0 -2169602.286 -24997970.377 4662748.884 10 0 60503 64800.00000 0 -2185971.649 -24212064.943 7770314.458 10 0 60503 65700.00000 0 -2042480.010 -23068486.788 10727178.970 10 0 60503 66600.00000 0 -1696987.003 -21608345.306 13476012.564 10 0 60503 67500.00000 0 -1116446.158 -19882461.929 15963522.675 10 0 60503 68400.00000 0 -278544.541 -17949298.490 18141481.672 10 0 60503 69300.00000 0 827111.059 -15872585.982 19967656.342 10 0 60503 70200.00000 0 2198311.900 -13718752.343 21406621.832 10 0 60503 71100.00000 0 3820098.644 -11554255.963 22430444.953 10 0 60503 72000.00000 0 5665153.696 -9442935.351 23019224.141 10 0 60503 72900.00000 0 7694719.587 -7443484.514 23161476.068 10 0 60503 73800.00000 0 9860006.719 -5607158.310 22854361.580 10 0 60503 74700.00000 0 12104033.401 -3975802.491 22103746.498 10 0 60503 75600.00000 0 14363823.172 -2580289.781 20924095.705 10 0 60503 76500.00000 0 16572869.368 -1439426.533 19338201.893 10 0 60503 77400.00000 0 18663765.442 -559375.178 17376753.334 10 0 60503 78300.00000 0 20570892.257 66383.780 15077748.057 10 0 60503 79200.00000 0 22233050.721 456548.869 12485764.723 10 0 60503 80100.00000 0 23595929.809 640975.197 9651103.477 10 0 60503 81000.00000 0 24614306.469 659175.700 6628812.744 10 0 60503 81900.00000 0 25253884.670 558409.612 3477620.469 10 0 60503 82800.00000 0 25492695.655 391439.354 258790.568 10 0 60503 83700.00000 0 25321999.803 214051.387 -2965072.883 10 0 60503 84600.00000 0 24746651.349 82446.854 -6131249.823 10 0 60503 85500.00000 0 23784910.090 50613.637 -9178132.103 10 0 60504 0.00000 0 22467707.713 167792.347 -12046429.969 10 0 60504 900.00000 0 20837398.686 476144.963 -14680334.231 10 0 60504 1800.00000 0 18946050.176 1008725.929 -17028606.809 10 0 60504 2700.00000 0 16853340.728 1787842.966 -19045582.920 10 0 60504 3600.00000 0 14624158.115 2823877.845 -20692061.214 10 0 60504 4500.00000 0 12325996.731 4114617.894 -21936065.971 10 0 60504 5400.00000 0 10026263.977 5645127.169 -22753466.503 10 0 60504 6300.00000 0 7789608.361 7388163.434 -23128442.094 10 0 60504 7200.00000 0 5675380.758 9305123.954 -23053783.969 10 0 60504 8100.00000 0 3735334.342 11347480.966 -22531029.031 10 0 60504 9000.00000 0 2011658.349 13458647.089 -21570423.366 10 0 60504 9900.00000 0 535426.565 15576193.007 -20190716.689 10 0 60504 10800.00000 0 -674476.108 17634325.033 -18418792.159 10 0 60504 11700.00000 0 -1611905.820 19566519.352 -16289138.975 10 0 60504 12600.00000 0 -2283469.314 21308203.161 -13843178.184 10 0 60504 13500.00000 0 -2707992.240 22799370.950 -11128454.875 10 0 60504 14400.00000 0 -2915470.278 23987026.905 -8197712.458 10 0 60504 15300.00000 0 -2945548.721 24827351.559 -5107867.094 10 0 60504 16200.00000 0 -2845595.882 25287502.392 -1918902.210 10 0 60504 17100.00000 0 -2668452.640 25346973.374 1307295.344 10 0 60504 18000.00000 0 -2469953.933 24998456.868 4508134.824 10 0 60504 18900.00000 0 -2306327.441 24248172.170 7621533.453 10 0 60504 19800.00000 0 -2231579.710 23115647.220 10587117.155 10 0 60504 20700.00000 0 -2294980.312 21632962.855 13347386.942 10 0 60504 21600.00000 0 -2538750.402 19843491.323 15848828.633 10 0 60504 22500.00000 0 -2996053.274 17800181.700 18042944.800 10 0 60504 23400.00000 0 -3689371.826 15563463.568 19887189.469 10 0 60504 24300.00000 0 -4629341.589 13198855.923 21345788.085 10 0 60504 25200.00000 0 -5814089.011 10774380.307 22390427.526 10 0 60504 26100.00000 0 -7229103.641 8357885.026 23000803.349 10 0 60504 27000.00000 0 -8847650.780 6014390.895 23165014.086 10 0 60504 27900.00000 0 -10631708.723 3803567.832 22879795.195 10 0 60504 28800.00000 0 -12533393.005 1777446.348 22150587.994 10 0 60504 29700.00000 0 -14496809.761 -21541.834 20991441.899 10 0 60504 30600.00000 0 -16460262.374 -1562113.199 19424751.188 10 0 60504 31500.00000 0 -18358720.597 -2825207.984 17480830.497 10 0 60504 32400.00000 0 -20126450.040 -3804547.443 15197336.298 10 0 60504 33300.00000 0 -21699692.768 -4506649.924 12618544.496 10 0 60504 34200.00000 0 -23019287.028 -4950305.425 9794497.301 10 0 60504 35100.00000 0 -24033116.197 -5165531.007 6780035.183 10 0 60504 36000.00000 0 -24698283.653 -5192051.445 3633732.309 10 0 60504 36900.00000 0 -24982921.418 -5077369.679 416756.130 10 0 60504 37800.00000 0 -24867555.521 -4874509.233 -2808326.434 10 0 60504 38700.00000 0 -24345969.678 -4639524.949 -5978772.390 10 0 60504 39600.00000 0 -23425529.997 -4428888.462 -9032890.989 10 0 60504 40500.00000 0 -22126956.248 -4296860.238 -11911252.080 10 0 60504 41400.00000 0 -20483548.863 -4292960.734 -14557850.061 10 0 60504 42300.00000 0 -18539903.815 -4459648.958 -16921199.834 10 0 60504 43200.00000 0 -16350169.369 -4830307.795 -18955342.848 10 0 60504 44100.00000 0 -13975917.995 -5427622.328 -20620743.282 10 0 60504 45000.00000 0 -11483722.854 -6262420.457 -21885056.827 10 0 60504 45900.00000 0 -8942540.479 -7333025.407 -22723757.322 10 0 60504 46800.00000 0 -6421008.999 -8625147.930 -23120609.436 10 0 60504 47700.00000 0 -3984774.623 -10112323.158 -23067978.738 10 0 60504 48600.00000 0 -1693957.443 -11756874.087 -22566973.758 10 0 60504 49500.00000 0 399138.546 -13511361.522 -21627417.819 10 0 60504 50400.00000 0 2251976.756 -15320459.955 -20267651.724 10 0 60504 51300.00000 0 3833320.642 -17123180.969 -18514171.493 10 0 60504 52200.00000 0 5124285.300 -18855351.300 -16401108.471 10 0 60504 53100.00000 0 6118865.797 -20452241.959 -13969562.052 10 0 60504 54000.00000 0 6823922.008 -21851238.528 -11266798.093 10 0 60504 54900.00000 0 7258622.395 -22994440.986 -8345328.576 10 0 60504 55800.00000 0 7453371.819 -23831084.290 -5261890.487 10 0 60504 56700.00000 0 7448270.029 -24319678.477 -2076343.770 10 0 60504 57600.00000 0 7291167.062 -24429778.725 1149490.189 10 0 60504 58500.00000 0 7035398.586 -24143311.328 4353026.871 10 0 60504 59400.00000 0 6737297.538 -23455400.139 7472130.435 10 0 60504 60300.00000 0 6453587.604 -22374658.935 10446315.550 10 0 60504 61200.00000 0 6238768.877 -20922937.463 13217915.993 10 0 60504 62100.00000 0 6142606.163 -19134531.707 15733197.647 10 0 60504 63000.00000 0 6207825.904 -17054891.136 17943394.736 10 0 60504 63900.00000 0 6468118.822 -14738876.487 19805649.699 10 0 60504 64800.00000 0 6946532.489 -12248640.159 21283839.165 10 0 60504 65700.00000 0 7654321.708 -9651216.687 22349270.662 10 0 60504 66600.00000 0 8590305.531 -7015922.647 22981237.115 10 0 60504 67500.00000 0 9740758.669 -4411673.008 23167418.874 10 0 60504 68400.00000 0 11079842.950 -1904324.336 22904125.659 10 0 60504 69300.00000 0 12570562.014 445845.878 22196373.674 10 0 60504 70200.00000 0 14166200.746 2586420.043 21057796.029 10 0 60504 71100.00000 0 15812190.663 4474787.538 19510387.537 10 0 60504 72000.00000 0 17448324.565 6079677.696 17584087.973 10 0 60504 72900.00000 0 19011228.850 7382215.419 15316210.854 10 0 60504 73800.00000 0 20436990.763 8376455.788 12750727.777 10 0 60504 74700.00000 0 21663830.777 9069375.671 9937421.284 10 0 60504 75600.00000 0 22634707.947 9480323.007 6930921.990 10 0 60504 76500.00000 0 23299748.323 9639947.322 3789648.226 10 0 60504 77400.00000 0 23618393.480 9588656.942 574668.778 10 0 60504 78300.00000 0 23561177.727 9374668.649 -2651488.904 10 0 60504 79200.00000 0 23111057.978 9051732.950 -5826061.261 10 0 60504 80100.00000 0 22264239.030 8676632.085 -8887277.255 10 0 60504 81000.00000 0 21030458.609 8306557.846 -11775568.324 10 0 60504 81900.00000 0 19432719.145 7996481.228 -14434735.045 10 0 60504 82800.00000 0 17506476.895 7796626.426 -16813046.943 10 0 60504 83700.00000 0 15298322.228 7750157.154 -18864253.423 10 0 60504 84600.00000 0 12864206.151 7891174.015 -20548485.764 10 0 60504 85500.00000 0 10267287.425 8243108.263 -21833032.494 99